sat.trackr.live / text

‹ back to catalog

SAL-E

NORAD 68458 · 2026-067AU

PAYLOAD ACTIVE UNKNOWN

§ Identity

Operator
Country
US
Launch date
2026-03-30
Launch site
AFWTR
Launch vehicle
Mass (kg)
RCS (m²)

External: N2YO · Heavens-Above · Gunter

§ Orbital elements

Epoch: 2026-05-24T20:12:57.764736Z

Period
94.90 min
Inclination
97.4464°
Eccentricity
0.0007052
Mean motion
15.17368527 rev/d
Perigee alt
508.9 km
Apogee alt
518.7 km
Semi-major
6,891.9 km
B*
3.4426e-4
RAAN
103.5242°
Arg perigee
139.2688°
Mean anomaly
220.9074°
Rev number
839

§ Raw data

SAL-E1 68458U 26067AU  26144.84233524  .00006813  00000+0  34426-3 0  99992 68458  97.4464 103.5242 0007052 139.2688 220.9074 15.17368527  8394

JSON: /api/v1/satellites/68458 · /tle

For live sub-satellite position, see the globe view (requires WebGL).

§ Visibility from observer

Set your observer location to see the next 7 days of passes ≥ 10°. The values pass through the URL so the page stays shareable.

No JS? Fill the form by hand. The geolocation button needs JavaScript.

§ Radio — SatNOGS DB

ModeDescriptionDownlinkUplink
FSK AX.25 FSK9k6 BEACON 436.965 MHz

1 transmitter · refreshed weekly from db.satnogs.org